Year,Month,Day,Hour,Minute,Value (Times are PST for temperature in C)
2021,01,13,00,00,8.30
2021,01,13,00,01,8.30
2021,01,13,00,02,8.30
2021,01,13,00,03,8.30
2021,01,13,00,04,8.30
2021,01,13,00,05,8.30
2021,01,13,00,06,8.30
2021,01,13,00,07,8.30
2021,01,13,00,08,8.30
2021,01,13,09,29,7.90
2021,01,13,09,30,8.00
2021,01,13,09,31,8.00
2021,01,13,09,32,8.00
2021,01,13,09,33,8.00
2021,01,13,09,34,8.00
2021,01,13,09,35,8.00
2021,01,13,09,36,8.00
2021,01,13,09,37,8.00
2021,01,13,09,38,8.00
2021,01,13,09,39,8.00
2021,01,13,09,40,8.10
2021,01,13,09,41,8.10
2021,01,13,09,42,8.10
2021,01,13,09,43,8.10
2021,01,13,09,44,8.10
2021,01,13,09,45,8.10
2021,01,13,09,46,8.10
2021,01,13,09,47,8.10
2021,01,13,09,48,8.10
2021,01,13,09,49,8.10
2021,01,13,09,50,8.20
2021,01,13,09,51,8.20
2021,01,13,09,52,8.20
2021,01,13,09,53,8.20
2021,01,13,09,54,8.20
2021,01,13,09,55,8.30
2021,01,13,09,56,8.30
2021,01,13,09,57,8.30
2021,01,13,09,58,8.30
2021,01,13,09,59,8.30
2021,01,13,10,00,8.30
2021,01,13,10,01,8.40
2021,01,13,10,02,8.40
2021,01,13,10,03,8.40
2021,01,13,10,04,8.40
2021,01,13,10,05,8.50
2021,01,13,10,06,8.40
2021,01,13,10,07,8.40
2021,01,13,10,08,8.40
2021,01,13,10,09,8.40
2021,01,13,10,10,8.40
2021,01,13,10,11,8.40
2021,01,13,10,12,8.50
2021,01,13,10,13,8.40
2021,01,13,10,14,8.40
2021,01,13,10,15,8.40
2021,01,13,10,16,8.50
2021,01,13,10,17,8.40
2021,01,13,10,18,8.40
2021,01,13,10,19,8.40
2021,01,13,10,20,8.40
2021,01,13,10,21,8.40
2021,01,13,10,22,8.40
2021,01,13,10,23,8.40
2021,01,13,10,24,8.40
2021,01,13,10,25,8.40
2021,01,13,10,26,8.40
2021,01,13,10,27,8.50
2021,01,13,10,28,8.50
2021,01,13,10,29,8.50
2021,01,13,10,30,8.50
2021,01,13,10,31,8.50
2021,01,13,10,32,8.50
2021,01,13,10,33,8.60
2021,01,13,10,34,8.60
2021,01,13,10,35,8.70
2021,01,13,10,36,8.70
2021,01,13,10,37,8.70
2021,01,13,10,38,8.80
2021,01,13,10,39,8.80
2021,01,13,10,40,8.90
2021,01,13,10,41,9.00
2021,01,13,10,42,9.10
2021,01,13,10,43,9.10
2021,01,13,10,44,9.20
2021,01,13,10,45,9.20
2021,01,13,10,46,9.20
2021,01,13,10,47,9.20
2021,01,13,10,48,9.10
2021,01,13,10,49,9.20
2021,01,13,10,50,9.20
2021,01,13,10,51,9.20
2021,01,13,10,52,9.20
2021,01,13,10,53,9.10
2021,01,13,10,54,9.10
2021,01,13,10,55,9.00
2021,01,13,10,56,9.10
2021,01,13,10,57,9.10
2021,01,13,10,58,9.10
2021,01,13,10,59,9.10
2021,01,13,11,00,9.10
2021,01,13,11,01,9.10
2021,01,13,11,02,9.10
2021,01,13,11,03,9.20
2021,01,13,11,04,9.20
2021,01,13,11,05,9.10
2021,01,13,11,06,9.10
2021,01,13,11,07,9.00
2021,01,13,11,08,8.90
2021,01,13,11,09,8.80
2021,01,13,11,10,8.70
2021,01,13,11,11,8.70
2021,01,13,11,12,8.60
2021,01,13,11,13,8.60
2021,01,13,11,14,8.50
2021,01,13,11,15,8.50
2021,01,13,11,16,8.50
2021,01,13,11,17,8.60
2021,01,13,11,18,8.60
2021,01,13,11,19,8.60
2021,01,13,11,20,8.60
2021,01,13,11,21,8.60
2021,01,13,11,22,8.70
2021,01,13,11,23,8.70
2021,01,13,11,24,8.70
2021,01,13,11,25,8.80
2021,01,13,11,26,8.80
2021,01,13,11,27,8.80
2021,01,13,11,28,8.80
2021,01,13,11,29,8.90
2021,01,13,11,30,8.90
2021,01,13,11,31,8.90
2021,01,13,11,32,8.80
2021,01,13,11,33,8.90
2021,01,13,11,34,8.90
2021,01,13,11,35,8.90
2021,01,13,11,36,9.00
2021,01,13,11,37,9.00
2021,01,13,11,38,9.00
2021,01,13,11,39,9.00
2021,01,13,11,40,9.10
2021,01,13,11,41,9.10
2021,01,13,11,42,9.10
2021,01,13,11,43,9.20
2021,01,13,11,44,9.20
2021,01,13,11,45,9.20
2021,01,13,11,46,9.30
2021,01,13,11,47,9.30
2021,01,13,11,48,9.30
2021,01,13,11,49,9.40
2021,01,13,11,50,9.40
2021,01,13,11,51,9.40
2021,01,13,11,52,9.40
2021,01,13,11,53,9.30
2021,01,13,11,54,9.30
2021,01,13,11,55,9.40
2021,01,13,11,56,9.40
2021,01,13,11,57,9.40
2021,01,13,11,58,9.30
2021,01,13,11,59,9.30
2021,01,13,12,00,9.30
2021,01,13,12,01,9.30
2021,01,13,12,02,9.40
2021,01,13,12,03,9.40
2021,01,13,12,04,9.50
2021,01,13,12,05,9.60
2021,01,13,12,06,9.70
2021,01,13,12,07,9.80
2021,01,13,12,08,9.90
2021,01,13,12,09,10.00
2021,01,13,12,10,10.10
2021,01,13,12,11,10.10
2021,01,13,12,12,10.20
2021,01,13,12,13,10.20
2021,01,13,12,14,10.20
2021,01,13,12,15,10.30
2021,01,13,12,16,10.30
2021,01,13,12,17,10.40
2021,01,13,12,18,10.40
2021,01,13,12,19,10.40
2021,01,13,12,20,10.40
2021,01,13,12,21,10.40
2021,01,13,12,22,10.40
2021,01,13,12,23,10.40
2021,01,13,12,24,10.40
2021,01,13,12,25,10.30
2021,01,13,12,26,10.30
2021,01,13,12,27,10.20
2021,01,13,12,28,10.20
2021,01,13,12,29,10.20
2021,01,13,12,30,10.20
2021,01,13,12,31,10.20
2021,01,13,12,32,10.20
2021,01,13,12,33,10.20
2021,01,13,12,34,10.20
2021,01,13,12,35,10.20
2021,01,13,12,36,10.20
2021,01,13,12,37,10.20
2021,01,13,12,38,10.20
2021,01,13,12,39,10.20
2021,01,13,12,40,10.30
2021,01,13,12,41,10.40
2021,01,13,12,42,10.40
2021,01,13,12,43,10.60
2021,01,13,12,44,10.60
2021,01,13,12,45,10.60
2021,01,13,12,46,10.70
2021,01,13,12,47,10.80
2021,01,13,12,48,10.80
2021,01,13,12,49,10.90
2021,01,13,12,50,10.80
2021,01,13,12,51,10.80
2021,01,13,12,52,10.90
2021,01,13,12,53,10.90
2021,01,13,12,54,10.90
2021,01,13,12,55,10.90
2021,01,13,12,56,10.90
2021,01,13,12,57,10.80
2021,01,13,12,58,10.80
2021,01,13,12,59,10.70
2021,01,13,13,00,10.60
2021,01,13,13,01,10.60
2021,01,13,13,02,10.60
2021,01,13,13,03,10.60
2021,01,13,13,04,10.60
2021,01,13,13,05,10.50
2021,01,13,13,06,10.40
2021,01,13,13,07,10.40
2021,01,13,13,08,10.30
2021,01,13,13,09,10.20
2021,01,13,13,10,10.20
2021,01,13,13,11,10.10
2021,01,13,13,12,10.10
2021,01,13,13,13,10.00
2021,01,13,13,14,9.90
2021,01,13,13,15,9.90
2021,01,13,13,16,9.90
2021,01,13,13,17,9.90
2021,01,13,13,18,9.80
2021,01,13,13,19,9.80
2021,01,13,13,20,9.80
2021,01,13,13,21,9.80
2021,01,13,13,22,9.80
2021,01,13,13,23,9.80
2021,01,13,13,24,9.70
2021,01,13,13,25,9.70
2021,01,13,13,26,9.70
2021,01,13,13,27,9.70
2021,01,13,13,28,9.70
2021,01,13,13,29,9.60
2021,01,13,13,30,9.60
2021,01,13,13,31,9.60
2021,01,13,13,32,9.60
2021,01,13,13,33,9.50
2021,01,13,13,34,9.50
2021,01,13,13,35,9.40
2021,01,13,13,36,9.40
2021,01,13,13,37,9.40
2021,01,13,13,38,9.30
2021,01,13,13,39,9.30
2021,01,13,13,40,9.30
2021,01,13,13,41,9.30
2021,01,13,13,42,9.20
2021,01,13,13,43,9.20
2021,01,13,13,44,9.20
2021,01,13,13,45,9.20
2021,01,13,13,46,9.20
2021,01,13,13,47,9.20
2021,01,13,13,48,9.20
2021,01,13,13,49,9.10
2021,01,13,13,50,9.10
2021,01,13,13,51,9.10
2021,01,13,13,52,9.10
2021,01,13,13,53,9.10
2021,01,13,13,54,9.10
2021,01,13,13,55,9.10
2021,01,13,13,56,9.10
2021,01,13,13,57,9.10
2021,01,13,13,58,9.10
2021,01,13,13,59,9.20
2021,01,13,14,00,9.20
2021,01,13,14,01,9.20
2021,01,13,14,02,9.30
2021,01,13,14,03,9.40
2021,01,13,14,04,9.40
2021,01,13,14,05,9.50
2021,01,13,14,06,9.50
2021,01,13,14,07,9.50
2021,01,13,14,08,9.60
2021,01,13,14,09,9.60
2021,01,13,14,10,9.60
2021,01,13,14,11,9.50
2021,01,13,14,12,9.50
2021,01,13,14,13,9.50
2021,01,13,14,14,9.50
2021,01,13,14,15,9.40
2021,01,13,14,16,9.40
2021,01,13,14,17,9.40
2021,01,13,14,18,9.40
2021,01,13,14,19,9.50
2021,01,13,14,20,9.50
2021,01,13,14,21,9.50
2021,01,13,14,22,9.50
2021,01,13,14,23,9.60
2021,01,13,14,24,9.60
2021,01,13,14,25,9.60
2021,01,13,14,26,9.60
2021,01,13,14,27,9.60
2021,01,13,14,28,9.60
2021,01,13,14,29,9.60
2021,01,13,14,30,9.60
2021,01,13,14,31,9.60
2021,01,13,14,32,9.60
2021,01,13,14,33,9.60
2021,01,13,14,34,9.60
2021,01,13,14,35,9.60
2021,01,13,14,36,9.60
2021,01,13,14,37,9.60
2021,01,13,14,38,9.60
2021,01,13,14,39,9.60
2021,01,13,14,40,9.70
2021,01,13,14,41,9.70
2021,01,13,14,42,9.70
2021,01,13,14,43,9.60
2021,01,13,14,44,9.60
2021,01,13,14,45,9.60
2021,01,13,14,46,9.50
2021,01,13,14,47,9.50
2021,01,13,14,48,9.50
2021,01,13,14,49,9.50
2021,01,13,14,50,9.50
2021,01,13,14,51,9.50
2021,01,13,14,52,9.60
2021,01,13,14,53,9.60
2021,01,13,14,54,9.60
2021,01,13,14,55,9.60
2021,01,13,14,56,9.50
2021,01,13,14,57,9.50
2021,01,13,14,58,9.50
2021,01,13,14,59,9.50
2021,01,13,15,00,9.50
2021,01,13,15,01,9.40
2021,01,13,15,02,9.40
2021,01,13,15,03,9.30
2021,01,13,15,04,9.30
2021,01,13,15,05,9.30
2021,01,13,15,06,9.30
2021,01,13,15,07,9.30
2021,01,13,15,08,9.20
2021,01,13,15,09,9.20
2021,01,13,15,10,9.20
2021,01,13,15,11,9.20
2021,01,13,15,12,9.20
2021,01,13,15,13,9.20
2021,01,13,15,14,9.20
2021,01,13,15,15,9.20
2021,01,13,15,16,9.20
2021,01,13,15,17,9.20
2021,01,13,15,18,9.20
2021,01,13,15,19,9.20
2021,01,13,15,20,9.30
2021,01,13,15,21,9.30
2021,01,13,15,22,9.30
2021,01,13,15,23,9.30
2021,01,13,15,24,9.40
2021,01,13,15,25,9.40
2021,01,13,15,26,9.30
2021,01,13,15,27,9.30
2021,01,13,15,28,9.30
2021,01,13,15,29,9.30
2021,01,13,15,30,9.30
2021,01,13,15,31,9.30
2021,01,13,15,32,9.30
2021,01,13,15,33,9.20
2021,01,13,15,34,9.20
2021,01,13,15,35,9.20
2021,01,13,15,36,9.20
2021,01,13,15,37,9.20
2021,01,13,15,38,9.20
2021,01,13,15,39,9.20
2021,01,13,15,40,9.20
2021,01,13,15,41,9.20
2021,01,13,15,42,9.20
2021,01,13,15,43,9.20
2021,01,13,15,44,9.20
2021,01,13,15,45,9.20
2021,01,13,15,46,9.20
2021,01,13,15,47,9.20
2021,01,13,15,48,9.20
2021,01,13,15,49,9.20
2021,01,13,15,50,9.20
2021,01,13,15,51,9.20
2021,01,13,15,52,9.20
2021,01,13,15,53,9.20
2021,01,13,15,54,9.20
2021,01,13,15,55,9.20
2021,01,13,15,56,9.20
2021,01,13,15,57,9.20
2021,01,13,15,58,9.20
2021,01,13,15,59,9.20
2021,01,13,16,00,9.20
2021,01,13,16,01,9.20
2021,01,13,16,02,9.20
2021,01,13,16,03,9.20
2021,01,13,16,04,9.20
2021,01,13,16,05,9.20
2021,01,13,16,06,9.20
2021,01,13,16,07,9.20
2021,01,13,16,08,9.10
2021,01,13,16,09,9.10
2021,01,13,16,10,9.10
2021,01,13,16,11,9.10
2021,01,13,16,12,9.10
2021,01,13,16,13,9.10
2021,01,13,16,14,9.10
2021,01,13,16,15,9.10
2021,01,13,16,16,9.10
2021,01,13,16,17,9.00
2021,01,13,16,18,9.00
2021,01,13,16,19,9.00
2021,01,13,16,20,9.00
2021,01,13,16,21,9.00
2021,01,13,16,22,9.00
2021,01,13,16,23,8.90
2021,01,13,16,24,8.40
2021,01,13,16,25,8.40
2021,01,13,16,26,8.40
2021,01,13,16,27,8.40
2021,01,13,16,28,8.40
2021,01,13,16,29,8.30
2021,01,13,16,30,8.30
2021,01,13,16,31,8.30
2021,01,13,16,32,8.30
2021,01,13,16,33,8.30
2021,01,13,16,34,8.30
2021,01,13,16,35,8.30
2021,01,13,16,36,8.30
2021,01,13,16,37,8.20
2021,01,13,16,38,8.20
2021,01,13,16,39,8.20
2021,01,13,16,40,8.20
2021,01,13,16,41,8.20
2021,01,13,16,42,8.20
2021,01,13,16,43,8.20
2021,01,13,16,44,8.20
2021,01,13,16,45,8.10
2021,01,13,16,46,8.10
2021,01,13,16,47,8.10
2021,01,13,16,48,8.10
2021,01,13,16,49,8.10
2021,01,13,16,50,8.10
2021,01,13,16,51,8.10
2021,01,13,16,52,8.10
2021,01,13,16,53,8.10
2021,01,13,16,54,8.10
2021,01,13,16,55,8.10
2021,01,13,16,56,8.10
2021,01,13,16,57,8.00
2021,01,13,16,58,8.00
2021,01,13,16,59,8.00
2021,01,13,17,00,8.00
2021,01,13,17,01,8.00
2021,01,13,17,02,7.90
2021,01,13,17,03,7.90
2021,01,13,17,04,7.90
2021,01,13,17,05,7.90
2021,01,13,17,06,7.90
2021,01,13,17,07,7.90
2021,01,13,17,08,7.90
2021,01,13,17,09,7.90
2021,01,13,17,10,7.90
2021,01,13,17,11,7.90
2021,01,13,17,12,7.90
2021,01,13,17,13,7.90
2021,01,13,17,14,7.90
2021,01,13,17,15,7.90
2021,01,13,17,16,7.90
2021,01,13,17,17,7.90
2021,01,13,17,18,7.90
2021,01,13,17,19,7.90
2021,01,13,17,20,7.90
2021,01,13,17,21,7.90
2021,01,13,17,22,7.90
2021,01,13,17,23,7.90
2021,01,13,17,24,7.80
2021,01,13,17,25,7.90
2021,01,13,17,26,7.80
2021,01,13,17,27,7.80
2021,01,13,17,28,7.80
2021,01,13,17,29,7.80
2021,01,13,17,30,7.80
2021,01,13,17,31,7.70
2021,01,13,17,32,7.70
2021,01,13,17,33,7.70
2021,01,13,17,34,7.70
2021,01,13,17,35,7.70
2021,01,13,17,36,7.70
2021,01,13,17,37,7.70
2021,01,13,17,38,7.70
2021,01,13,17,39,7.60
2021,01,13,17,40,7.60
2021,01,13,17,41,7.60
2021,01,13,17,42,7.60
2021,01,13,17,43,7.60
2021,01,13,17,44,7.60
2021,01,13,17,45,7.50
2021,01,13,17,46,7.60
2021,01,13,17,47,7.50
2021,01,13,17,48,7.50
2021,01,13,17,49,7.50
2021,01,13,17,50,7.50
2021,01,13,17,51,7.50
2021,01,13,17,52,7.40
2021,01,13,17,53,7.40
2021,01,13,17,54,7.40
2021,01,13,17,55,7.40
2021,01,13,17,56,7.40
2021,01,13,17,57,7.40
2021,01,13,17,58,7.40
2021,01,13,17,59,7.40
2021,01,13,18,00,7.40
2021,01,13,18,01,7.40
2021,01,13,18,02,7.40
2021,01,13,18,03,7.40
2021,01,13,18,04,7.40
2021,01,13,18,05,7.40
2021,01,13,18,06,7.30
2021,01,13,18,07,7.30
2021,01,13,18,08,7.30
2021,01,13,18,09,7.30
2021,01,13,18,10,7.30
2021,01,13,18,11,7.30
2021,01,13,18,12,7.30
2021,01,13,18,13,7.30
2021,01,13,18,14,7.30
2021,01,13,18,15,7.30
2021,01,13,18,16,7.30
2021,01,13,18,17,7.30
2021,01,13,18,18,7.20
2021,01,13,18,19,7.20
2021,01,13,18,20,7.20
2021,01,13,18,21,7.20
2021,01,13,18,22,7.20
2021,01,13,18,23,7.20
2021,01,13,18,24,7.20
2021,01,13,18,25,7.20
2021,01,13,18,26,7.20
2021,01,13,18,27,7.20
2021,01,13,18,28,7.20
2021,01,13,18,29,7.20
2021,01,13,18,30,7.20
2021,01,13,18,31,7.20
2021,01,13,18,32,7.20
2021,01,13,18,33,7.20
2021,01,13,18,34,7.20
2021,01,13,18,35,7.20
2021,01,13,18,36,7.20
2021,01,13,18,37,7.20
2021,01,13,18,38,7.20
2021,01,13,18,39,7.20
2021,01,13,18,40,7.20
2021,01,13,18,41,7.20
2021,01,13,18,42,7.20
2021,01,13,18,43,7.20
2021,01,13,18,44,7.20
2021,01,13,18,45,7.20
2021,01,13,18,46,7.20
2021,01,13,18,47,7.20
2021,01,13,18,48,7.20
2021,01,13,18,49,7.20
2021,01,13,18,50,7.20
2021,01,13,18,51,7.20
2021,01,13,18,52,7.20
2021,01,13,18,53,7.20
2021,01,13,18,54,7.20
2021,01,13,18,55,7.20
2021,01,13,18,56,7.20
2021,01,13,18,57,7.10
2021,01,13,18,58,7.10
2021,01,13,18,59,7.10
2021,01,13,19,00,7.10
2021,01,13,19,01,7.10
2021,01,13,19,02,7.10
2021,01,13,19,03,7.10
2021,01,13,19,04,7.10
2021,01,13,19,05,7.10
2021,01,13,19,06,7.10
2021,01,13,19,07,7.00
2021,01,13,19,08,7.00
2021,01,13,19,09,7.00
2021,01,13,19,10,7.00
2021,01,13,19,11,7.00
2021,01,13,19,12,7.00
2021,01,13,19,13,7.00
2021,01,13,19,14,7.00
2021,01,13,19,15,7.00
2021,01,13,19,16,7.00
2021,01,13,19,17,7.00
2021,01,13,19,18,7.00
2021,01,13,19,19,7.00
2021,01,13,19,20,7.00
2021,01,13,19,21,7.00
2021,01,13,19,22,7.00
2021,01,13,19,23,7.00
2021,01,13,19,24,7.00
2021,01,13,19,25,7.00
2021,01,13,19,26,7.00
2021,01,13,19,27,7.10
2021,01,13,19,28,7.00
2021,01,13,19,29,7.00
2021,01,13,19,30,7.10
2021,01,13,19,31,7.10
2021,01,13,19,32,7.10
2021,01,13,19,33,7.10
2021,01,13,19,34,7.10
2021,01,13,19,35,7.10
2021,01,13,19,36,7.20
2021,01,13,19,37,7.20
2021,01,13,19,38,7.20
2021,01,13,19,39,7.20
2021,01,13,19,40,7.20
2021,01,13,19,41,7.20
2021,01,13,19,42,7.20
2021,01,13,19,43,7.20
2021,01,13,19,44,7.20
2021,01,13,19,45,7.20
2021,01,13,19,46,7.20
2021,01,13,19,47,7.20
2021,01,13,19,48,7.10
2021,01,13,19,49,7.10
2021,01,13,19,50,7.10
2021,01,13,19,51,7.10
2021,01,13,19,52,7.10
2021,01,13,19,53,7.10
2021,01,13,19,54,7.10
2021,01,13,19,55,7.10
2021,01,13,19,56,7.10
2021,01,13,19,57,7.10
2021,01,13,19,58,7.10
2021,01,13,19,59,7.10
2021,01,13,20,00,7.10
2021,01,13,20,01,7.10
2021,01,13,20,02,7.10
2021,01,13,20,03,7.10
2021,01,13,20,04,7.10
2021,01,13,20,05,7.10
2021,01,13,20,06,7.10
2021,01,13,20,07,7.10
2021,01,13,20,08,7.10
2021,01,13,20,09,7.20
2021,01,13,20,10,7.20
2021,01,13,20,11,7.20
2021,01,13,20,12,7.20
2021,01,13,20,13,7.20
2021,01,13,20,14,7.20
2021,01,13,20,15,7.20
2021,01,13,20,16,7.20
2021,01,13,20,17,7.20
2021,01,13,20,18,7.10
2021,01,13,20,19,7.20
2021,01,13,20,20,7.20
2021,01,13,20,21,7.20
2021,01,13,20,22,7.20
2021,01,13,20,23,7.20
2021,01,13,20,24,7.20
2021,01,13,20,25,7.10
2021,01,13,20,26,7.10
2021,01,13,20,27,7.10
2021,01,13,20,28,7.10
2021,01,13,20,29,7.10
2021,01,13,20,30,7.10
2021,01,13,20,31,7.10
2021,01,13,20,32,7.10
2021,01,13,20,33,7.10
2021,01,13,20,34,7.00
2021,01,13,20,35,7.10
2021,01,13,20,36,7.00
2021,01,13,20,37,7.00
2021,01,13,20,38,7.00
2021,01,13,20,39,6.90
2021,01,13,20,40,6.90
2021,01,13,20,41,6.90
2021,01,13,20,42,6.90
2021,01,13,20,43,6.90
2021,01,13,20,44,6.80
2021,01,13,20,45,6.80
2021,01,13,20,46,6.80
2021,01,13,20,47,6.80
2021,01,13,20,48,6.80
2021,01,13,20,49,6.80
2021,01,13,20,50,6.70
2021,01,13,20,51,6.70
2021,01,13,20,52,6.70
2021,01,13,20,53,6.70
2021,01,13,20,54,6.70
2021,01,13,20,55,6.70
2021,01,13,20,56,6.60
2021,01,13,20,57,6.60
2021,01,13,20,58,6.60
2021,01,13,20,59,6.60
2021,01,13,21,00,6.60
2021,01,13,21,01,6.60
2021,01,13,21,02,6.60
2021,01,13,21,03,6.60
2021,01,13,21,04,6.60
2021,01,13,21,05,6.60
2021,01,13,21,06,6.50
2021,01,13,21,07,6.50
2021,01,13,21,08,6.50
2021,01,13,21,09,6.50
2021,01,13,21,10,6.50
2021,01,13,21,11,6.40
2021,01,13,21,12,6.40
2021,01,13,21,13,6.40
2021,01,13,21,14,6.40
2021,01,13,21,15,6.40
2021,01,13,21,16,6.40
2021,01,13,21,17,6.40
2021,01,13,21,18,6.40
2021,01,13,21,19,6.40
2021,01,13,21,20,6.40
2021,01,13,21,21,6.40
2021,01,13,21,22,6.40
2021,01,13,21,23,6.40
2021,01,13,21,24,6.30
2021,01,13,21,25,6.30
2021,01,13,21,26,6.30
2021,01,13,21,27,6.30
2021,01,13,21,28,6.30
2021,01,13,21,29,6.30
2021,01,13,21,30,6.30
2021,01,13,21,31,6.30
2021,01,13,21,32,6.30
2021,01,13,21,33,6.30
2021,01,13,21,34,6.30
2021,01,13,21,35,6.30
2021,01,13,21,36,6.30
2021,01,13,21,37,6.20
2021,01,13,21,38,6.20
2021,01,13,21,39,6.20
2021,01,13,21,40,6.10
2021,01,13,21,41,6.10
2021,01,13,21,42,6.00
2021,01,13,21,43,6.00
2021,01,13,21,44,5.90
2021,01,13,21,45,5.90
2021,01,13,21,46,5.90
2021,01,13,21,47,5.90
2021,01,13,21,48,5.80
2021,01,13,21,49,5.90
2021,01,13,21,50,5.90
2021,01,13,21,51,5.90
2021,01,13,21,52,5.90
2021,01,13,21,53,5.90
2021,01,13,21,54,5.90
2021,01,13,21,55,5.90
2021,01,13,21,56,5.90
2021,01,13,21,57,5.80
2021,01,13,21,58,5.80
2021,01,13,21,59,5.80
2021,01,13,22,00,5.80
2021,01,13,22,01,5.80
2021,01,13,22,02,5.80
2021,01,13,22,03,5.80
2021,01,13,22,04,5.80
2021,01,13,22,05,5.80
2021,01,13,22,06,5.80
2021,01,13,22,07,5.80
2021,01,13,22,08,5.80
2021,01,13,22,09,5.70
2021,01,13,22,10,5.80
2021,01,13,22,11,5.80
2021,01,13,22,12,5.80
2021,01,13,22,13,5.90
2021,01,13,22,14,5.80
2021,01,13,22,15,5.80
2021,01,13,22,16,5.90
2021,01,13,22,17,5.90
2021,01,13,22,18,5.90
2021,01,13,22,19,5.90
2021,01,13,22,20,5.90
2021,01,13,22,21,5.90
2021,01,13,22,22,5.90
2021,01,13,22,23,6.00
2021,01,13,22,24,6.00
2021,01,13,22,25,6.10
2021,01,13,22,26,6.10
2021,01,13,22,27,6.10
2021,01,13,22,28,6.00
2021,01,13,22,29,6.00
2021,01,13,22,30,6.00
2021,01,13,22,31,6.00
2021,01,13,22,32,6.10
2021,01,13,22,33,6.10
2021,01,13,22,34,6.10
2021,01,13,22,35,6.10
2021,01,13,22,36,6.10
2021,01,13,22,37,6.20
2021,01,13,22,38,6.20
2021,01,13,22,39,6.20
2021,01,13,22,40,6.30
2021,01,13,22,41,6.30
2021,01,13,22,42,6.40
2021,01,13,22,43,6.30
2021,01,13,22,44,6.40
2021,01,13,22,45,6.40
2021,01,13,22,46,6.30
2021,01,13,22,47,6.40
2021,01,13,22,48,6.30
2021,01,13,22,49,6.30
2021,01,13,22,50,6.30
2021,01,13,22,51,6.30
2021,01,13,22,52,6.30
2021,01,13,22,53,6.30
2021,01,13,22,54,6.30
2021,01,13,22,55,6.30
2021,01,13,22,56,6.20
2021,01,13,22,57,6.20
2021,01,13,22,58,6.20
2021,01,13,22,59,6.20
2021,01,13,23,00,6.20
2021,01,13,23,01,6.20
2021,01,13,23,02,6.10
2021,01,13,23,03,6.10
2021,01,13,23,04,6.00
2021,01,13,23,05,5.90
2021,01,13,23,06,5.90
2021,01,13,23,07,5.80
2021,01,13,23,08,5.80
2021,01,13,23,09,5.80
2021,01,13,23,10,5.80
2021,01,13,23,11,5.80
2021,01,13,23,12,5.90
2021,01,13,23,13,5.90
2021,01,13,23,14,5.90
2021,01,13,23,15,5.90
2021,01,13,23,16,6.00
2021,01,13,23,17,6.10
2021,01,13,23,18,6.10
2021,01,13,23,19,6.20
2021,01,13,23,20,6.20
2021,01,13,23,21,6.20
2021,01,13,23,22,6.20
2021,01,13,23,23,6.20
2021,01,13,23,24,6.20
2021,01,13,23,25,6.30
2021,01,13,23,26,6.30
2021,01,13,23,27,6.30
2021,01,13,23,28,6.30
2021,01,13,23,29,6.30
2021,01,13,23,30,6.30
2021,01,13,23,31,6.30
2021,01,13,23,32,6.30
2021,01,13,23,33,6.30
2021,01,13,23,34,6.30
2021,01,13,23,35,6.30
2021,01,13,23,36,6.30
2021,01,13,23,37,6.30
2021,01,13,23,38,6.30
2021,01,13,23,39,6.30
2021,01,13,23,40,6.30
2021,01,13,23,41,6.40
2021,01,13,23,42,6.40
2021,01,13,23,43,6.40
2021,01,13,23,44,6.40
2021,01,13,23,45,6.40
2021,01,13,23,46,6.50
2021,01,13,23,47,6.50
2021,01,13,23,48,6.50
2021,01,13,23,49,6.50
2021,01,13,23,50,6.60
2021,01,13,23,51,6.50
2021,01,13,23,52,6.50
2021,01,13,23,53,6.40
2021,01,13,23,54,6.40
2021,01,13,23,55,6.40
2021,01,13,23,56,6.40
2021,01,13,23,57,6.40
2021,01,13,23,58,6.40
2021,01,13,23,59,6.40
